Regional Weather Roundup
Issued by NWS

Home | Current Version | Previous Version | Text Only | Print | Product List | Glossary On
Versions: 1 2 3 4 5 6 7 8 9 10 11 12 13 14 15 16 17 18 19 20 21 22 23 24 25 26 27 28 29 30 31 32 33 34 35 36 37 38 39 40 41 42 43 44 45 46 47 48 49 50
000
ASUS45 KSLC 032110
RWRUT
UTAH REGIONAL WEATHER ROUNDUP
NATIONAL WEATHER SERVICE SALT LAKE CITY UT
300 PM MDT MON AUG 03 2015

UTZ001>011-023>025-032200-

NORTHERN UTAH

CITY           SKY/WX    TMP DP  RH WIND       PRES   REMARKS
BRIGHAM CITY   CLOUDY    63  59  86 S3        30.14S
HILL AFB       LGT RAIN  62  62 100 W9        30.16R FOG
LOGAN          LGT RAIN  64  59  83 N5        30.13S
OGDEN          LGT RAIN  62  60  93 W3        30.14S FOG
PROVO AIRPORT  PTSUNNY   66  55  68 N3        30.16S
SALT LAKE CITY LGT RAIN  65  58  78 NW3       30.15R
VERNAL         PTSUNNY   72  53  51 W13G22    30.07S
WENDOVER       CLOUDY    75  54  46 E10       30.10F
HEBER CITY     CLOUDY    63  52  67 SW9       30.17R
WEST JORDAN    CLOUDY    66  57  72 CALM      30.17S

$$

UTZ012>022-026-027-032200-

SOUTHERN/CENTRAL UTAH

CITY           SKY/WX    TMP DP  RH WIND       PRES   REMARKS
BLANDING       SUNNY     78  56  46 SW7       30.25F
BRYCE CANYON   PTSUNNY   79  42  26 W14G20    30.28F
CEDAR CITY     MOSUNNY   87  38  17 SW21      30.10F
DELTA          SUNNY     78  51  39 NE9       30.11F
HANKSVILLE     MOSUNNY   86  57  37 CALM      30.06F
MILFORD        NOT AVBL
MOAB/CYNLANDS  MOSUNNY   84  51  31 W10G20    30.03F
PRICE          MOSUNNY   74  50  42 W13G23    30.16F
ST GEORGE      CLOUDY    99  46  16 W10G20    29.93F HX  95
KANAB          MOSUNNY   90  43  19 SW14      30.12F

$$

REGIONAL REPORTS     COLORADO/ARIZONA

CITY           SKY/WX    TMP DP  RH WIND       PRES   REMARKS
CRAIG, CO      PTSUNNY   77  51  40 VRB7      30.11F
GRAND JUNCTION PTSUNNY   85  48  27 W16G23    30.06F
RIFLE          LGT RAIN  70  58  65 SE14      30.13R
MONTROSE       MOSUNNY   82  51  34 NW13      30.16R
CORTEZ         MOSUNNY   82  51  34 NW10G18   30.18F
PAGE, AZ       SUNNY     89  53  29 VRB3      30.03F
GRAND CANYON   MOSUNNY   85  41  21 SW9G16    30.24F
KINGMAN        SUNNY     99  43  14 S18G26    30.00S HX  95
FLAGSTAFF      SUNNY     80  35  19 VRB7      30.30F

$$

REGIONAL REPORTS    NEVADA/IDAHO/WYOMING

CITY           SKY/WX    TMP DP  RH WIND       PRES   REMARKS
LAS VEGAS, NV  MOSUNNY  104  33   8 SW8       29.80F HX  97
ELY            MOSUNNY   86  36  16 SW12G20   30.12F
ELKO           PTSUNNY   86  37  17 W6        30.04F
POCATELLO, ID  MOSUNNY   75  51  43 SE13      30.07R
BURLEY         CLOUDY    80  49  33 W8        30.02S
EVANSTON, WY   RAIN      54  52  93 W15       30.20R FOG
ROCK SPRINGS   PTSUNNY   70  50  49 S15G26    30.12F
KEMMERER       LGT RAIN N/A N/A N/A W6        30.18S

$$



USA.gov is the U.S. government's official web portal to all federal, state and local government web resources and services.